Regional Weather Roundup
Issued by NWS

Home | Current Version | Previous Version | Graphics & Text | Print | Product List | Glossary On
Versions: 1 2 3 4 5 6 7 8 9 10 11 12 13 14 15 16 17 18 19 20 21 22 23 24 25 26 27 28 29 30 31 32 33 34 35 36 37 38 39 40 41 42 43 44 45 46 47 48 49 50
000
ASUS45 KABQ 281510
RWRNM
NEW MEXICO REGIONAL WEATHER ROUNDUP
NATIONAL WEATHER SERVICE ALBUQUERQUE NM
900 AM MDT THU MAY 28 2015

NOTE: "FAIR" MEANS FEW OR NO CLOUDS BELOW 12,000 FEET AGL WITH NO
       SIGNIFICANT WEATHER OR OBSTRUCTIONS TO VISION.

      THIS PRODUCT IS RELEASED AS TWO VERSIONS.  ONE VERSION NEAR
      THE TOP OF THE HOUR CONTAINING PRELIMINARY DATA FROM ALBUQUERQUE
      AND OTHER STATIONS.  A FINAL VERSION WITH ADDITIONAL DATA IS
      ISSUED ABOUT 10 MINUTES AFTER THE HOUR.

NMZ501-503-504-510>518-281600-
NORTHWEST PLATEAU/NORTHCENTRAL MOUNTAINS

CITY           SKY/WX    TMP DP  RH WIND       PRES   REMARKS
FARMINGTON     SUNNY     60  36  40 E5        30.13S
LOS ALAMOS     MOSUNNY   62  34  35 E5        30.23S
SANTA FE       MOSUNNY   64  34  32 VRB3      30.17S
TAOS           PTSUNNY   55  34  44 CALM      30.22S
ANGEL FIRE     FAIR      48  35  61 CALM      30.28S

$$
NMZ402-403-502-505>509-281600-
WESTCENTRAL MOUNTAINS/SOUTHWEST MOUNTAINS

CITY           SKY/WX    TMP DP  RH WIND       PRES   REMARKS
GALLUP         SUNNY     58  34  40 W3        30.21S
GRANTS         SUNNY     59  28  29 SE5       30.23F
SILVER CITY      N/A     73  19  13 NW8       30.17R

$$
NMZ407-409-411-412-281600-
SOUTHERN DESERTS

CITY           SKY/WX    TMP DP  RH WIND       PRES   REMARKS
LORDSBURG      FAIR      72  23  16 W5        30.11S
DEMING         SUNNY     68  23  18 SW7       30.09S
LAS CRUCES     SUNNY     74  19  12 W3        30.10R
HOLLOMAN AFB   SUNNY     76  49  37 CALM      30.05R
ALAMOGORDO     SUNNY     75  46  35 CALM      30.07S
T OR C         SUNNY     75  23  14 N7        30.10R

$$
NMZ519>523-281600-
CENTRAL VALLEYS/CENTRAL HIGHLANDS

CITY           SKY/WX    TMP DP  RH WIND       PRES   REMARKS
ALBUQUERQUE    MOSUNNY   65  36  34 CALM      30.15R
DOUBLE EAGLE   MOSUNNY   66  32  28 CALM      30.17
MORIARTY ARPT  FAIR      62  31  31 S5        30.19S
CLINES CORNERS SUNNY     66  28  24 W12       30.19S
BELEN          FAIR      66  35  30 CALM      30.14S
SOCORRO        FAIR      70  28  20 N5        30.11F

$$
NMZ524>526-539-540-281600-
SOUTHCENTRAL MOUNTAINS

CITY           SKY/WX    TMP DP  RH WIND       PRES   REMARKS
RUIDOSO        SUNNY     66  36  32 N6        30.23S

$$
NMZ527>531-281600-
NORTHEAST HIGHLANDS/NORTHEAST PLAINS

CITY           SKY/WX    TMP DP  RH WIND       PRES   REMARKS
LAS VEGAS      MOSUNNY   59  38  45 N6        30.18S
RATON          MOSUNNY   60  47  61 VRB5      30.14F
CLAYTON        CLOUDY    63  58  83 S17       30.10S

$$
NMZ532>537-281600-
EASTCENTRAL PLAINS

CITY           SKY/WX    TMP DP  RH WIND       PRES   REMARKS
TUCUMCARI      PTSUNNY   70  61  73 S16       30.06R
CANNON AFB     MOSUNNY   66  64  94 S13       30.09F
CLOVIS AIRPORT CLOUDY    68  63  83 S18G24      N/A

$$
NMZ028-029-538-281600-
SOUTHEAST PLAINS

CITY           SKY/WX    TMP DP  RH WIND       PRES   REMARKS
ROSWELL        CLOUDY    71  64  78 S14       30.04S
ARTESIA        CLOUDY    70  66  88 SE8       30.04S
CARLSBAD       PTSUNNY   73  64  73 SE7       30.01S
HOBBS          CLOUDY    68  68 100 E13       30.07R


$$



USA.gov is the U.S. government's official web portal to all federal, state and local government web resources and services.